MET'MAP v2.0
soon released !

Expected late october,
this new version will be
more efficient, smarter,
and hosted on a brand new
server x3 powerfull...
...and still free !


Not compatible ?
Try the mobile version !

LOG IN : | Subscribe | Disclaimer | Who is Orbifly ? |
ICAO code :
Legend : VFR Marginal VFR IFR Intensive IFR Very Intensive IFR
Visi :
Ceiling :
>= 8 km
>= 3000ft
5 to 8 km
1000 to 3000 ft
1500m to 5 km
500 to 1000 ft
800 to 1500m
200 to 500 ft
< 800m
< 200 ft

METAR - LFPT Pontoise - 29 Nov 2020 17:15 UTC
Data Sources :     NOAA   


- Airport Elevation : 325 ft
- IATA code : POX
- No reported NOTAMs.


LFPT - Pontoise

Latest METAR recorded : 2020/11/29 16:00 LFPT 291600Z AUTO 05007KT 7000 OVC007 03/02 Q1025
NO TAF
ATIS : +33 1 30 30 52 08


MET'MAP, your aeronautical weather chart ! - Copyright ORBIFLY December 2007

Programming & Development : Alexandra Zaïnal
Co-Developer : Marc-Olivier Méhu
Technical & hardware support : Manuel Goepfert
Concept & Financing : Baudouin d'Aumeries